| time (UTC) | temp F | wind direction | speed knots | gust knots | rain 1hr in | rain 24hr in | rain mn in | humidity % | barometer mb |
| 20260831113011 | 60 | 244 | 1.7 | 0.0 | 0.00 | 0.00 | 0.06 | 82 | 1003.8 |
| 20260831111510 | 62 | 233 | 1.7 | 0.0 | 0.00 | 0.00 | 0.06 | 81 | 1003.5 |
| 20260831110018 | 62 | 190 | 2.6 | 0.0 | 0.00 | 0.00 | 0.06 | 81 | 1003.5 |
| 20260831104501 | 60 | 178 | 0.9 | 0.0 | 0.00 | 0.00 | 0.06 | 87 | 1003.5 |
| 20260831103102 | 58 | 271 | 0.0 | 0.0 | 0.00 | 0.00 | 0.06 | 88 | 1003.7 |
| 20260831101602 | 58 | 289 | 0.9 | 0.0 | 0.00 | 0.00 | 0.06 | 90 | 1003.6 |
| 20260831100106 | 58 | 190 | 0.9 | 0.0 | 0.00 | 0.00 | 0.06 | 92 | 1003.6 |
| 20260831094610 | 58 | 233 | 0.9 | 0.0 | 0.00 | 0.00 | 0.06 | 91 | 1003.5 |
| 20260831093054 | 58 | 184 | 2.6 | 0.0 | 0.00 | 0.00 | 0.06 | 92 | 1003.4 |
| 20260831091557 | 58 | 231 | 0.9 | 0.0 | 0.00 | 0.00 | 0.06 | 95 | 1003.4 |
| 20260831090048 | 56 | 221 | 0.9 | 0.0 | 0.00 | 0.00 | 0.06 | 95 | 1003.5 |
| 20260831084548 | 56 | 236 | 2.6 | 0.0 | 0.00 | 0.00 | 0.06 | 95 | 1003.4 |
| 20260831083044 | 56 | 219 | 1.7 | 0.0 | 0.00 | 0.00 | 0.06 | 95 | 1003.3 |
| 20260831081540 | 56 | 190 | 0.0 | 0.0 | 0.00 | 0.00 | 0.06 | 96 | 1003.3 |
| 20260831080040 | 55 | 215 | 0.0 | 0.0 | 0.00 | 0.00 | 0.06 | 96 | 1003.2 |
| 20260831074537 | 55 | 217 | 0.9 | 0.0 | 0.00 | 0.00 | 0.06 | 96 | 1003.2 |
| 20260831073035 | 54 | 219 | 1.7 | 0.0 | 0.00 | 0.00 | 0.06 | 96 | 1003.2 |
| 20260831071549 | 55 | 214 | 0.9 | 0.0 | 0.00 | 0.00 | 0.06 | 96 | 1003.1 |
| 20260831070035 | 55 | 198 | 0.9 | 0.0 | 0.00 | 0.00 | 0.06 | 96 | 1003.2 |
| 20260831064534 | 54 | 182 | 1.7 | 0.0 | 0.00 | 0.00 | 0.06 | 96 | 1003.0 |
| 20260831063037 | 55 | 204 | 0.9 | 0.0 | 0.00 | 0.00 | 0.06 | 97 | 1003.2 |
| 20260831061532 | 55 | 184 | 0.0 | 0.0 | 0.00 | 0.00 | 0.06 | 97 | 1003.0 |
| 20260831060030 | 54 | 184 | 0.0 | 0.0 | 0.00 | 0.00 | 0.06 | 97 | 1003.0 |
| 20260831054529 | 54 | 185 | 0.9 | 0.0 | 0.00 | 0.00 | 0.06 | 96 | 1003.1 |
| 20260831053044 | 54 | 185 | 0.0 | 0.0 | 0.00 | 0.00 | 0.06 | 96 | 1002.8 |
| 20260831051532 | 54 | 190 | 0.9 | 0.0 | 0.00 | 0.00 | 0.06 | 96 | 1002.8 |
| 20260831050026 | 54 | 197 | 0.0 | 0.0 | 0.00 | 0.00 | 0.06 | 97 | 1002.7 |
| 20260831044526 | 54 | 198 | 0.0 | 0.0 | 0.00 | 0.00 | 0.06 | 97 | 1002.6 |
| 20260831043024 | 54 | 198 | 0.0 | 0.0 | 0.00 | 0.00 | 0.06 | 97 | 1002.6 |
| 20260831041523 | 54 | 211 | 0.0 | 0.0 | 0.00 | 0.00 | 0.06 | 96 | 1002.5 |
| 20260831040023 | 54 | 225 | 0.0 | 0.0 | 0.00 | 0.00 | 0.06 | 96 | 1002.4 |
| 20260831034522 | 54 | 229 | 0.0 | 0.0 | 0.00 | 0.00 | 0.06 | 97 | 1002.5 |
| 20260831033031 | 54 | 240 | 0.0 | 0.0 | 0.00 | 0.00 | 0.06 | 96 | 1002.2 |
| 20260831031521 | 54 | 254 | 0.0 | 0.0 | 0.00 | 0.00 | 0.06 | 96 | 1002.2 |
| 20260831030019 | 54 | 261 | 0.9 | 0.0 | 0.00 | 0.00 | 0.06 | 97 | 1002.1 |
| 20260831024520 | 54 | 218 | 0.0 | 0.0 | 0.00 | 0.00 | 0.06 | 96 | 1002.1 |
| 20260831023030 | 54 | 232 | 0.0 | 0.0 | 0.00 | 0.00 | 0.04 | 96 | 1002.0 |
| 20260831021531 | 54 | 192 | 0.0 | 0.0 | 0.00 | 0.00 | 0.02 | 96 | 1001.8 |
| 20260831020025 | 54 | 191 | 0.0 | 0.0 | 0.00 | 0.00 | 0.02 | 96 | 1001.8 |
| 20260831014515 | 54 | 191 | 0.0 | 0.0 | 0.00 | 0.00 | 0.02 | 96 | 1001.7 |
| 20260831013014 | 54 | 191 | 0.0 | 0.0 | 0.00 | 0.00 | 0.02 | 96 | 1001.7 |
| 20260831011516 | 54 | 191 | 0.0 | 0.0 | 0.00 | 0.00 | 0.02 | 96 | 1001.7 |
| 20260831010013 | 54 | 191 | 0.0 | 0.0 | 0.00 | 0.00 | 0.02 | 96 | 1001.7 |
| 20260831004511 | 54 | 191 | 0.0 | 0.0 | 0.00 | 0.00 | 0.02 | 96 | 1001.8 |
| 20260831003010 | 54 | 191 | 0.0 | 0.0 | 0.00 | 0.00 | 0.02 | 96 | 1001.7 |
| 20260831001513 | 54 | 191 | 0.0 | 0.0 | 0.00 | 0.00 | 0.02 | 96 | 1001.6 |
| 20260831000009 | 54 | 192 | 0.0 | 0.0 | 0.00 | 0.00 | 0.02 | 96 | 1001.6 |
| 20260830234508 | 54 | 197 | 0.0 | 0.0 | 0.00 | 0.00 | 0.02 | 96 | 1001.6 |
| 20260830233007 | 54 | 201 | 0.0 | 0.0 | 0.00 | 0.00 | 0.02 | 96 | 1001.6 |
| 20260830231515 | 54 | 209 | 0.0 | 0.0 | 0.00 | 0.00 | 0.02 | 96 | 1001.3 |
| 20260830230006 | 54 | 214 | 0.9 | 0.0 | 0.00 | 0.00 | 0.01 | 96 | 1001.4 |
| 20260830224503 | 54 | 236 | 2.6 | 0.0 | 0.00 | 0.00 | 0.01 | 96 | 1001.3 |
| 20260830223100 | 54 | 231 | 1.7 | 0.0 | 0.00 | 0.00 | 0.01 | 96 | 1001.1 |
| 20260830221601 | 54 | 240 | 0.9 | 0.0 | 0.00 | 0.00 | 0.00 | 95 | 1001.0 |
| 20260830220107 | 54 | 228 | 0.9 | 0.0 | 0.00 | 0.00 | 0.00 | 95 | 1001.1 |
| 20260830214555 | 54 | 201 | 0.9 | 0.0 | 0.00 | 0.00 | 0.17 | 95 | 1000.8 |
| 20260830213103 | 54 | 232 | 0.9 | 0.0 | 0.00 | 0.00 | 0.17 | 95 | 1000.7 |
| 20260830211558 | 54 | 217 | 0.0 | 0.0 | 0.00 | 0.00 | 0.17 | 95 | 1000.7 |
| 20260830210058 | 54 | 223 | 0.0 | 0.0 | 0.00 | 0.00 | 0.17 | 95 | 1000.7 |
| 20260830204556 | 54 | 239 | 1.7 | 0.0 | 0.00 | 0.00 | 0.17 | 94 | 1000.7 |
| 20260830203054 | 55 | 246 | 1.7 | 0.0 | 0.00 | 0.00 | 0.15 | 94 | 1000.6 |
| 20260830201548 | 55 | 223 | 0.9 | 0.0 | 0.00 | 0.00 | 0.14 | 94 | 1000.6 |
| 20260830200046 | 55 | 273 | 1.7 | 0.0 | 0.00 | 0.00 | 0.13 | 94 | 1000.5 |
| 20260830194545 | 55 | 267 | 1.7 | 0.0 | 0.00 | 0.00 | 0.12 | 93 | 1000.4 |
| 20260830193044 | 56 | 265 | 1.7 | 0.0 | 0.00 | 0.00 | 0.12 | 93 | 1000.3 |
| 20260830191543 | 56 | 240 | 0.9 | 0.0 | 0.00 | 0.00 | 0.12 | 92 | 1000.2 |
| 20260830190043 | 56 | 231 | 0.0 | 0.0 | 0.00 | 0.00 | 0.12 | 92 | 1000.0 |
| 20260830184542 | 56 | 234 | 0.9 | 0.0 | 0.00 | 0.00 | 0.12 | 91 | 999.9 |
| 20260830183046 | 56 | 203 | 0.9 | 0.0 | 0.00 | 0.00 | 0.12 | 91 | 999.9 |
| 20260830181540 | 57 | 242 | 0.0 | 0.0 | 0.00 | 0.00 | 0.12 | 91 | 999.8 |
| 20260830180039 | 57 | 292 | 0.9 | 0.0 | 0.00 | 0.00 | 0.12 | 91 | 999.6 |
| 20260830174541 | 57 | 294 | 0.0 | 0.0 | 0.00 | 0.00 | 0.12 | 91 | 999.6 |
| 20260830173036 | 57 | 294 | 0.0 | 0.0 | 0.00 | 0.00 | 0.12 | 91 | 999.6 |
| 20260830171536 | 57 | 294 | 0.0 | 0.0 | 0.00 | 0.00 | 0.12 | 91 | 999.5 |
| 20260830170034 | 57 | 308 | 0.0 | 0.0 | 0.00 | 0.00 | 0.12 | 91 | 999.5 |
| 20260830164539 | 57 | 309 | 0.9 | 0.0 | 0.00 | 0.00 | 0.12 | 90 | 999.3 |
| 20260830163032 | 57 | 309 | 1.7 | 0.0 | 0.00 | 0.00 | 0.12 | 90 | 999.3 |
| 20260830161546 | 57 | 299 | 0.9 | 0.0 | 0.00 | 0.00 | 0.12 | 90 | 999.2 |
| 20260830160033 | 58 | 311 | 0.0 | 0.0 | 0.00 | 0.00 | 0.12 | 90 | 999.1 |
| 20260830154536 | 57 | 311 | 1.7 | 0.0 | 0.00 | 0.00 | 0.12 | 91 | 999.1 |
| 20260830153044 | 57 | 15 | 0.9 | 0.0 | 0.00 | 0.00 | 0.12 | 91 | 999.1 |
| 20260830151529 | 56 | 360 | 0.9 | 0.0 | 0.00 | 0.00 | 0.12 | 92 | 999.0 |
| 20260830150029 | 56 | 320 | 0.0 | 0.0 | 0.00 | 0.00 | 0.12 | 91 | 998.9 |
| 20260830144528 | 56 | 319 | 0.9 | 0.0 | 0.00 | 0.00 | 0.12 | 91 | 998.9 |
| 20260830143031 | 56 | 319 | 0.0 | 0.0 | 0.00 | 0.00 | 0.12 | 90 | 998.9 |
| 20260830141527 | 56 | 306 | 0.9 | 0.0 | 0.00 | 0.00 | 0.12 | 90 | 998.9 |
| 20260830140025 | 56 | 309 | 0.0 | 0.0 | 0.00 | 0.00 | 0.12 | 90 | 998.8 |
| 20260830134532 | 56 | 311 | 0.9 | 0.0 | 0.00 | 0.00 | 0.12 | 91 | 998.7 |
| 20260830133028 | 56 | 302 | 1.7 | 0.0 | 0.00 | 0.00 | 0.12 | 91 | 998.6 |
| 20260830131523 | 56 | 290 | 1.7 | 0.0 | 0.00 | 0.00 | 0.12 | 91 | 998.5 |
| 20260830130023 | 56 | 306 | 2.6 | 0.0 | 0.00 | 0.00 | 0.12 | 92 | 998.5 |
| 20260830124525 | 55 | 306 | 2.6 | 0.0 | 0.00 | 0.00 | 0.12 | 92 | 998.6 |
| 20260830123021 | 55 | 310 | 2.6 | 0.0 | 0.00 | 0.00 | 0.11 | 92 | 998.5 |
| 20260830121521 | 55 | 297 | 2.6 | 0.0 | 0.00 | 0.00 | 0.09 | 92 | 998.6 |
| 20260830120019 | 55 | 284 | 3.5 | 0.0 | 0.00 | 0.00 | 0.08 | 92 | 998.6 |
| 20260830114526 | 55 | 297 | 4.3 | 0.0 | 0.00 | 0.00 | 0.07 | 92 | 998.5 |